Milwaukee, WI

5:31 PM CST on November 21, 2019 (GMT -0600)
Gen Mitchell International

Weather History for KMKE - September, 2019

Change the Weather History Date:

Friday, September 6, 2019

  Actual Average Record
Temperature  
Mean Temperature 64 °F 67 °F  
Max Temperature 71 °F 75 °F 97 °F (1922)
Min Temperature 57 °F 59 °F 41 °F (1962)
Degree Days  
Heating Degree Days 1 2  
Month to date heating degree days 6 8  
Since 1 July heating degree days 8 34  
Cooling Degree Days 0 4  
Month to date cooling degree days 18 25  
Year to date cooling degree days 624 590  
Growing Degree Days 14 (Base 50)    
Moisture  
Dew Point 57 °F    
Average Humidity 74    
Maximum Humidity 84    
Minimum Humidity 61    
Precipitation  
Precipitation 0.00 in 0.10 in 2.13 in (1925)
Month to date precipitation 0.26 0.62  
Year to date precipitation 28.67 24.80  
Snow  
Snow 0.00 in 0.00 in 0.00 in (2018)
Month to date snowfall 0.0 0.0  
Since 1 July snowfall 0.0 0.0  
Since 1 September snowfall 0.0 0.0  
Snow Depth 0.00 in    
Sea Level Pressure  
Sea Level Pressure 29.93 in    
Wind  
Wind Speed 9 mph ()    
Max Wind Speed 22 mph    
Max Gust Speed 35 mph    
Visibility 10.0 miles    
Events      
T = Trace of Precipitation, MM = Missing Value Source: Averaged Metar Reports

Daily Weather History Graph

Daily Weather History Graph

Search for Another Location

Airport or City:

Astronomy

Sep. 06, 2019 Rise Set
Actual Time 6:21 AM CDT 7:17 PM CDT
Civil Twilight 5:52 AM CDT 7:46 PM CDT
Nautical Twilight 5:17 AM CDT 8:21 PM CDT
Astronomical Twilight 4:41 AM CDT 8:56 PM CDT
Moon 2:40 PM CDT (9/6) No Moon Set
Length of Visible Light 13h 54m
Length of Day
12h 56m
First Quarter, 56% of the Moon is Illuminated
Sep 6
First Quarter
Sep 13
Full
Sep 21
Last Quarter
Sep 28
New
Oct 5
First Quarter

Hourly Weather History & Observations

Time (CDT) Temp. Dew Point Humidity Pressure Visibility Wind Dir Wind Speed Gust Speed Precip Events Conditions
12:52 AM 64.0 °F 55.9 °F 75% 29.96 in 10.0 mi South 5.8 mph - N/A   Overcast
1:52 AM 64.0 °F 55.9 °F 75% 29.94 in 10.0 mi SSE 5.8 mph - N/A   Overcast
2:52 AM 64.0 °F 55.9 °F 75% 29.91 in 10.0 mi South 8.1 mph - N/A   Overcast
3:52 AM 64.0 °F 57.0 °F 78% 29.87 in 10.0 mi SSW 9.2 mph - N/A   Mostly Cloudy
4:52 AM 63.0 °F 57.0 °F 81% 29.85 in 10.0 mi SSW 9.2 mph - N/A   Partly Cloudy
5:52 AM 64.0 °F 57.0 °F 78% 29.84 in 10.0 mi SW 8.1 mph - N/A   Scattered Clouds
6:00 AM 64.0 °F 57.9 °F 80% 29.85 in 10.0 mi SW 9.2 mph - N/A   Mostly Cloudy
6:52 AM 66.0 °F 57.9 °F 75% 29.85 in 10.0 mi WSW 8.1 mph - N/A   Overcast
7:45 AM 66.9 °F 60.1 °F 79% 29.85 in 10.0 mi West 10.4 mph - N/A   Scattered Clouds
7:52 AM 68.0 °F 60.1 °F 76% 29.85 in 10.0 mi West 10.4 mph - N/A   Scattered Clouds
8:52 AM 69.1 °F 62.1 °F 78% 29.86 in 10.0 mi NW 10.4 mph 23.0 mph N/A   Overcast
9:16 AM 69.1 °F 62.1 °F 78% 29.87 in 10.0 mi NW 10.4 mph - N/A   Overcast
9:52 AM 70.0 °F 62.1 °F 76% 29.87 in 10.0 mi NW 11.5 mph - N/A   Overcast
10:52 AM 71.1 °F 61.0 °F 70% 29.88 in 10.0 mi NNW 13.8 mph 20.7 mph N/A   Overcast
11:52 AM 69.1 °F 59.0 °F 70% 29.91 in 10.0 mi NNW 18.4 mph 29.9 mph N/A   Overcast
12:52 PM 68.0 °F 57.9 °F 70% 29.93 in 10.0 mi NW 15.0 mph 24.2 mph N/A   Overcast
1:52 PM 68.0 °F 57.0 °F 68% 29.95 in 10.0 mi NW 15.0 mph 23.0 mph N/A   Overcast
2:52 PM 70.0 °F 57.0 °F 63% 29.94 in 10.0 mi NNW 16.1 mph 28.8 mph N/A   Mostly Cloudy
3:37 PM 69.1 °F 55.9 °F 63% 29.96 in 10.0 mi NNW 17.3 mph 31.1 mph N/A   Overcast
3:52 PM 69.1 °F 55.9 °F 63% 29.95 in 10.0 mi North 19.6 mph 28.8 mph N/A   Mostly Cloudy
4:52 PM 69.1 °F 55.0 °F 61% 29.97 in 10.0 mi North 16.1 mph 25.3 mph N/A   Mostly Cloudy
5:52 PM 68.0 °F 55.9 °F 65% 29.99 in 10.0 mi North 13.8 mph 21.9 mph N/A   Mostly Cloudy
6:52 PM 62.1 °F 55.9 °F 80% 30.01 in 10.0 mi NNE 8.1 mph - N/A   Mostly Cloudy
7:52 PM 62.1 °F 55.9 °F 80% 30.02 in 10.0 mi NNE 6.9 mph - N/A   Mostly Cloudy
8:52 PM 62.1 °F 55.0 °F 78% 30.05 in 10.0 mi North 6.9 mph - N/A   Mostly Cloudy
9:52 PM 62.1 °F 55.0 °F 78% 30.05 in 10.0 mi North 4.6 mph - N/A   Mostly Cloudy
10:52 PM 62.1 °F 53.1 °F 72% 30.05 in 10.0 mi NNW 3.5 mph - N/A   Partly Cloudy
11:52 PM 60.1 °F 53.1 °F 78% 30.05 in 10.0 mi WNW 3.5 mph - N/A   Partly Cloudy